Japanese version Home page |
Updated on August 15, 2020 |
|
Orbital ElementsEpoch 2019 Aug. 25.0 TT = JDT 2458720.5 T 2019 Sept. 6.17877 TT Bell q 1.2678556 (2000.0) P Q n 0.09365049 Peri. 162.80502 +0.46371322 -0.87279178 a 4.8024480 Node 259.34069 +0.79356028 +0.48561240 e 0.7359980 Incl. 8.91709 +0.39399510 +0.04914370 P 10.5 From 335 observations 2008 Dec. 22-2020 Jan. 29, mean residual 0".8.
|
Finding Charts
|
Magnitudes Graphm1 = 14.0 + 5 log d + 15.0 log r
|
The orbital elements are published on M.P.E.C. 2020-C98.
|